TimeCST,TemperatureF,Dew PointF,Humidity,Sea Level PressureIn,VisibilityMPH,Wind Direction,Wind SpeedMPH,Gust SpeedMPH,PrecipitationIn,Events,Conditions,WindDirDegrees,DateUTC
12:55 AM,25.0,12.9,60,30.19,10.0,SSW,11.5,-,N/A,,Clear,200,2013-11-28 06:55:00
1:55 AM,25.0,12.9,60,30.19,10.0,SSW,11.5,-,N/A,,Clear,200,2013-11-28 07:55:00
2:55 AM,26.1,12.9,58,30.18,10.0,SSW,12.7,-,N/A,,Clear,210,2013-11-28 08:55:00
3:55 AM,25.0,12.9,60,30.17,10.0,SSW,11.5,25.3,N/A,,Clear,210,2013-11-28 09:55:00
4:55 AM,24.1,14.0,65,30.17,10.0,SW,10.4,-,N/A,,Clear,220,2013-11-28 10:55:00
5:55 AM,24.1,14.0,65,30.18,10.0,SW,8.1,-,N/A,,Clear,230,2013-11-28 11:55:00
6:55 AM,24.1,14.0,65,30.21,10.0,WSW,9.2,-,N/A,,Clear,250,2013-11-28 12:55:00
7:55 AM,26.1,16.0,66,30.22,10.0,West,10.4,-,N/A,,Clear,260,2013-11-28 13:55:00
8:55 AM,28.9,17.1,61,30.25,10.0,WNW,12.7,-,N/A,,Clear,300,2013-11-28 14:55:00
9:55 AM,32.0,18.0,56,30.28,10.0,NW,11.5,-,N/A,,Clear,310,2013-11-28 15:55:00
10:55 AM,35.1,18.0,50,30.30,10.0,NW,11.5,-,N/A,,Clear,310,2013-11-28 16:55:00
11:55 AM,37.0,18.0,46,30.30,10.0,NW,10.4,-,N/A,,Clear,310,2013-11-28 17:55:00
12:55 PM,39.0,17.1,41,30.32,10.0,NW,10.4,-,N/A,,Clear,320,2013-11-28 18:55:00
1:55 PM,39.9,17.1,40,30.35,10.0,North,11.5,-,N/A,,Clear,350,2013-11-28 19:55:00
2:55 PM,39.0,17.1,41,30.37,10.0,NNW,10.4,-,N/A,,Clear,330,2013-11-28 20:55:00
3:55 PM,36.0,17.1,46,30.40,10.0,NNW,9.2,-,N/A,,Clear,340,2013-11-28 21:55:00
4:55 PM,30.0,16.0,56,30.44,10.0,NNW,4.6,-,N/A,,Clear,340,2013-11-28 22:55:00
5:55 PM,27.0,16.0,63,30.47,10.0,North,6.9,-,N/A,,Clear,350,2013-11-28 23:55:00
6:55 PM,25.0,15.1,66,30.50,10.0,North,5.8,-,N/A,,Clear,360,2013-11-29 00:55:00
7:55 PM,23.0,15.1,72,30.52,10.0,North,5.8,-,N/A,,Clear,360,2013-11-29 01:55:00
8:55 PM,21.9,14.0,72,30.52,10.0,North,5.8,-,N/A,,Clear,10,2013-11-29 02:55:00
9:55 PM,21.0,14.0,74,30.53,10.0,NNE,6.9,-,N/A,,Clear,20,2013-11-29 03:55:00
10:55 PM,23.0,15.1,72,30.55,10.0,NNE,3.5,-,N/A,,Clear,20,2013-11-29 04:55:00
11:55 PM,17.1,14.0,88,30.55,10.0,NNE,3.5,-,N/A,,Clear,20,2013-11-29 05:55:00